SWR687 LEPA-LSZH

Flight info

Callsign SWR687
Flight time N/A
Altitude 34000
Route MEROS DCT LAPIT DCT CHELY DCT LUMAS DCT MAXIR DCT LUSOL DCT BODRU DCT OKTET DCT IRMAR DCT KINES DCT VANAS DCT MOBLO DCT LAMUR DCT KORED N871 BERSU
Aircraft MD82/M-SDFGIRWY/C

Departure

Time 2026-05-04 15:20
Airport Palma de Mallorca Airport (LEPA)

Arrival

Time N/A
Airport Zürich Airport (LSZH)
Time Latitude Longitude Altitude Speed Heading
2026-05-04 14:56 39.54752 2.73630 31 ft 0 kts 58°
2026-05-04 15:07 39.54744 2.73613 31 ft 3 kts 58°
2026-05-04 15:07 39.54736 2.73596 31 ft 3 kts 66°
2026-05-04 15:07 39.54732 2.73576 31 ft 3 kts 103°
2026-05-04 15:07 39.54740 2.73558 31 ft 3 kts 137°
2026-05-04 15:08 39.54755 2.73543 31 ft 2 kts 148°
2026-05-04 15:08 39.54759 2.73540 31 ft 0 kts 148°
2026-05-04 15:10 39.54752 2.73545 31 ft 1 kts 148°
2026-05-04 15:11 39.54720 2.73571 31 ft 10 kts 148°
2026-05-04 15:11 39.54669 2.73611 31 ft 0 kts 148°
2026-05-04 15:11 39.54666 2.73614 31 ft 3 kts 142°
2026-05-04 15:11 39.54659 2.73653 31 ft 8 kts 76°
2026-05-04 15:12 39.54697 2.73749 31 ft 13 kts 60°
2026-05-04 15:12 39.54747 2.73854 31 ft 14 kts 58°
2026-05-04 15:12 39.54800 2.73963 31 ft 15 kts 58°
2026-05-04 15:12 39.54871 2.73984 31 ft 11 kts 331°
2026-05-04 15:13 39.54935 2.73976 31 ft 10 kts 49°
2026-05-04 15:13 39.54975 2.74008 31 ft 8 kts 342°
2026-05-04 15:13 39.55053 2.73951 31 ft 17 kts 328°
2026-05-04 15:13 39.55179 2.73850 31 ft 24 kts 329°
2026-05-04 15:14 39.55319 2.73741 31 ft 24 kts 329°
2026-05-04 15:14 39.55459 2.73631 31 ft 23 kts 328°
2026-05-04 15:14 39.55584 2.73531 31 ft 17 kts 328°
2026-05-04 15:14 39.55653 2.73506 31 ft 9 kts 26°
2026-05-04 15:15 39.55691 2.73572 31 ft 10 kts 58°
2026-05-04 15:15 39.55741 2.73680 31 ft 18 kts 59°
2026-05-04 15:15 39.55818 2.73843 31 ft 23 kts 58°
2026-05-04 15:16 39.55979 2.74184 31 ft 22 kts 59°
2026-05-04 15:16 39.56059 2.74353 31 ft 22 kts 58°
2026-05-04 15:16 39.56131 2.74454 31 ft 0 kts 13°
2026-05-04 15:17 39.56133 2.74455 31 ft 1 kts 13°
2026-05-04 15:17 39.56253 2.74364 31 ft 16 kts 292°
2026-05-04 15:17 39.56238 2.74283 31 ft 0 kts 237°
2026-05-04 15:19 39.56222 2.74250 31 ft 17 kts 239°
2026-05-04 15:19 39.55702 2.73155 31 ft 128 kts 238°
2026-05-04 15:20 39.55152 2.72004 175 ft 163 kts 236°
2026-05-04 15:20 39.54552 2.70749 888 ft 168 kts 237°
2026-05-04 15:20 39.53945 2.69450 1657 ft 165 kts 238°
2026-05-04 15:20 39.53373 2.68223 2404 ft 162 kts 239°
2026-05-04 15:21 39.52748 2.66943 2851 ft 171 kts 238°
2026-05-04 15:21 39.52098 2.65626 3401 ft 176 kts 236°
2026-05-04 15:21 39.50674 2.62777 4259 ft 205 kts 236°
2026-05-04 15:22 39.49832 2.61206 4622 ft 221 kts 227°
2026-05-04 15:22 39.48760 2.60047 4923 ft 235 kts 213°
2026-05-04 15:22 39.45789 2.57831 5793 ft 254 kts 211°
2026-05-04 15:23 39.44242 2.56712 6505 ft 255 kts 209°
2026-05-04 15:23 39.42531 2.56106 7177 ft 263 kts 181°
2026-05-04 15:23 39.40767 2.56760 7784 ft 278 kts 152°
2026-05-04 15:23 39.39383 2.58575 8406 ft 294 kts 123°
2026-05-04 15:24 39.38853 2.63928 9652 ft 314 kts 84°
2026-05-04 15:24 39.39496 2.69744 10333 ft 343 kts 84°
2026-05-04 15:25 39.39810 2.72877 10538 ft 359 kts 85°
2026-05-04 15:25 39.40100 2.76149 10805 ft 373 kts 86°
2026-05-04 15:25 39.40352 2.79474 11309 ft 378 kts 87°
2026-05-04 15:26 39.40753 2.86269 12508 ft 380 kts 88°
2026-05-04 15:26 39.40927 2.89691 13002 ft 384 kts 88°
2026-05-04 15:26 39.41269 2.96629 14041 ft 389 kts 88°
2026-05-04 15:27 39.41448 3.00131 14476 ft 392 kts 88°
2026-05-04 15:27 39.41825 3.07273 15323 ft 402 kts 87°
2026-05-04 15:28 39.42173 3.14530 16298 ft 407 kts 88°
2026-05-04 15:28 39.42359 3.18216 16626 ft 413 kts 88°
2026-05-04 15:28 39.42956 3.25676 17505 ft 424 kts 73°
2026-05-04 15:29 39.44135 3.29211 17772 ft 435 kts 60°
2026-05-04 15:30 39.50860 3.43320 17923 ft 483 kts 57°
2026-05-04 15:30 39.55811 3.53999 18504 ft 459 kts 58°
2026-05-04 15:31 39.59015 3.61060 19885 ft 447 kts 58°
2026-05-04 15:31 39.60589 3.64524 20450 ft 446 kts 58°
2026-05-04 15:32 39.65381 3.75052 21503 ft 458 kts 59°
2026-05-04 15:32 39.68630 3.82241 22183 ft 466 kts 59°
2026-05-04 15:33 39.71918 3.89536 22843 ft 471 kts 59°
2026-05-04 15:34 39.76911 4.00634 23900 ft 479 kts 59°
2026-05-04 15:34 39.78600 4.04389 24221 ft 483 kts 59°
2026-05-04 15:34 39.82012 4.11941 24843 ft 487 kts 60°
2026-05-04 15:35 39.85897 4.19187 25415 ft 490 kts 39°
2026-05-04 15:35 39.88618 4.21705 25691 ft 483 kts 22°
2026-05-04 15:35 39.91746 4.23197 25920 ft 477 kts
2026-05-04 15:36 39.98269 4.24658 26469 ft 477 kts
2026-05-04 15:36 40.01571 4.25289 26671 ft 481 kts
2026-05-04 15:36 40.04887 4.25947 26945 ft 484 kts
2026-05-04 15:37 40.07094 4.26412 27148 ft 486 kts
2026-05-04 15:37 40.11519 4.27413 27529 ft 489 kts
2026-05-04 15:37 40.14874 4.28217 27763 ft 493 kts
2026-05-04 15:37 40.18258 4.29040 28010 ft 496 kts
2026-05-04 15:38 40.21655 4.29866 28261 ft 498 kts
2026-05-04 15:38 40.25076 4.30694 28540 ft 500 kts
2026-05-04 15:38 40.27397 4.31252 28806 ft 500 kts
2026-05-04 15:38 40.30773 4.32060 29221 ft 498 kts
2026-05-04 15:39 40.34183 4.32870 29562 ft 499 kts
2026-05-04 15:39 40.37609 4.33684 29841 ft 500 kts
2026-05-04 15:39 40.44466 4.35309 30581 ft 498 kts
2026-05-04 15:40 40.47867 4.36124 31008 ft 496 kts
2026-05-04 15:40 40.51255 4.36939 31431 ft 492 kts
2026-05-04 15:40 40.54623 4.37749 31749 ft 492 kts
2026-05-04 15:40 40.57989 4.38560 32069 ft 491 kts
2026-05-04 15:41 40.61344 4.39366 32365 ft 490 kts
2026-05-04 15:41 40.64701 4.40170 32652 ft 490 kts
2026-05-04 15:41 40.68055 4.40966 32963 ft 488 kts
2026-05-04 15:41 40.71346 4.41757 33263 ft 487 kts
2026-05-04 15:42 40.74677 4.42563 33555 ft 486 kts
2026-05-04 15:42 40.78001 4.43364 33768 ft 487 kts
2026-05-04 15:42 40.81351 4.44167 33844 ft 489 kts
2026-05-04 15:43 40.88030 4.45770 33913 ft 484 kts
2026-05-04 15:43 40.94628 4.47372 33926 ft 480 kts
2026-05-04 15:44 41.01202 4.48973 33929 ft 481 kts
2026-05-04 15:44 41.07804 4.50572 33937 ft 482 kts
2026-05-04 15:45 41.14415 4.52190 33928 ft 483 kts
2026-05-04 15:45 41.20981 4.53779 33927 ft 483 kts
2026-05-04 15:46 41.27604 4.55394 33935 ft 483 kts
2026-05-04 15:46 41.34204 4.57014 33922 ft 480 kts
2026-05-04 15:47 41.40774 4.58632 33919 ft 480 kts
2026-05-04 15:47 41.47365 4.60249 33947 ft 482 kts
2026-05-04 15:48 41.53968 4.61871 33930 ft 482 kts
2026-05-04 15:48 41.63795 4.64300 33915 ft 479 kts
2026-05-04 15:49 41.70362 4.65923 33940 ft 481 kts
2026-05-04 15:49 41.73626 4.67006 33929 ft 489 kts 18°
2026-05-04 15:49 41.76694 4.69021 33933 ft 494 kts 27°
2026-05-04 15:50 41.82539 4.73905 33932 ft 496 kts 30°
2026-05-04 15:50 41.88370 4.78829 33929 ft 494 kts 28°
2026-05-04 15:51 41.94243 4.83615 33931 ft 492 kts 27°
2026-05-04 15:51 42.00119 4.88312 33931 ft 490 kts 28°
2026-05-04 15:52 42.05943 4.92990 33936 ft 491 kts 27°
2026-05-04 15:52 42.11804 4.97739 33932 ft 491 kts 28°
2026-05-04 15:53 42.17638 5.02507 33935 ft 489 kts 28°
2026-05-04 15:53 42.23415 5.07219 33945 ft 488 kts 28°
2026-05-04 15:54 42.29234 5.11961 33953 ft 490 kts 27°
2026-05-04 15:54 42.35085 5.16742 33949 ft 489 kts 27°
2026-05-04 15:55 42.40891 5.21499 33954 ft 485 kts 27°
2026-05-04 15:55 42.46654 5.26223 33957 ft 488 kts 28°
2026-05-04 15:56 42.52461 5.31029 33974 ft 489 kts 28°
2026-05-04 15:56 42.58251 5.35828 33962 ft 487 kts 27°
2026-05-04 15:57 42.64042 5.40608 33962 ft 486 kts 27°
2026-05-04 15:57 42.69832 5.45390 33967 ft 487 kts 27°
2026-05-04 15:58 42.75626 5.50202 33979 ft 486 kts 27°
2026-05-04 15:58 42.81379 5.54991 33983 ft 488 kts 27°
2026-05-04 15:59 42.87163 5.59833 33979 ft 488 kts 27°
2026-05-04 15:59 42.92942 5.64679 33996 ft 487 kts 27°
2026-05-04 16:00 42.98688 5.69499 33995 ft 483 kts 27°
2026-05-04 16:00 43.04427 5.74315 33995 ft 485 kts 27°
2026-05-04 16:01 43.10188 5.79156 34028 ft 486 kts 27°
2026-05-04 16:01 43.15896 5.83965 34023 ft 483 kts 27°
2026-05-04 16:02 43.21606 5.88790 34024 ft 481 kts 27°
2026-05-04 16:03 43.30180 5.96036 34036 ft 481 kts 28°
2026-05-04 16:03 43.35878 6.00871 34029 ft 482 kts 28°
2026-05-04 16:04 43.41921 6.04460 34036 ft 467 kts
2026-05-04 16:04 43.51510 6.05440 34029 ft 463 kts 356°
2026-05-04 16:05 43.57958 6.05906 34007 ft 464 kts 355°
2026-05-04 16:06 43.67619 6.06849 34044 ft 464 kts 359°
2026-05-04 16:07 43.80340 6.09774 34029 ft 477 kts 20°
2026-05-04 16:08 43.92191 6.18066 34041 ft 480 kts 23°
2026-05-04 16:09 44.07033 6.28292 34046 ft 476 kts 23°
2026-05-04 16:10 44.18890 6.36425 34036 ft 476 kts 22°
2026-05-04 16:11 44.30741 6.44635 34059 ft 473 kts 22°
2026-05-04 16:12 44.48460 6.56891 34080 ft 471 kts 23°
2026-05-04 16:13 44.60103 6.65081 34091 ft 470 kts 23°
2026-05-04 16:14 44.71790 6.73268 34110 ft 469 kts 22°
2026-05-04 16:15 44.80757 6.78810 34133 ft 461 kts
2026-05-04 16:16 44.86997 6.78873 34116 ft 442 kts 350°
2026-05-04 16:17 45.02321 6.77485 34132 ft 447 kts 351°
2026-05-04 16:18 45.14778 6.76714 34110 ft 447 kts 352°
2026-05-04 16:19 45.30222 6.75693 34103 ft 445 kts 352°
2026-05-04 16:20 45.45709 6.74659 34102 ft 449 kts 352°
2026-05-04 16:22 45.61175 6.73620 34099 ft 445 kts 352°
2026-05-04 16:23 45.79784 6.72432 34063 ft 450 kts
2026-05-04 16:24 45.91582 6.79054 34052 ft 460 kts 24°
2026-05-04 16:25 45.96371 6.82368 34062 ft 460 kts 22°
2026-05-04 16:26 46.16760 6.95737 34050 ft 459 kts 22°
2026-05-04 16:28 46.31306 7.05376 34046 ft 461 kts 23°
2026-05-04 16:29 46.51632 7.18894 34036 ft 460 kts 23°
2026-05-04 16:31 46.66208 7.28688 34034 ft 460 kts 23°
2026-05-04 16:32 46.83575 7.40466 34039 ft 461 kts 29°
2026-05-04 16:33 46.88255 7.46777 34060 ft 463 kts 52°
2026-05-04 16:33 46.92160 7.54275 34003 ft 461 kts 54°
2026-05-04 16:34 46.98003 7.65417 33496 ft 470 kts 53°
2026-05-04 16:35 47.04116 7.76700 31622 ft 467 kts 53°
2026-05-04 16:35 47.10218 7.87952 27501 ft 483 kts 54°
2026-05-04 16:36 47.12315 7.91872 25881 ft 491 kts 53°
2026-05-04 16:36 47.15720 8.00436 23685 ft 479 kts 67°
2026-05-04 16:37 47.18387 8.09125 22050 ft 463 kts 68°
2026-05-04 16:37 47.19884 8.13268 21304 ft 459 kts 54°
2026-05-04 16:37 47.24770 8.18801 20289 ft 436 kts 17°
2026-05-04 16:38 47.30588 8.19351 18611 ft 423 kts 343°
2026-05-04 16:39 47.38507 8.13345 14834 ft 420 kts 327°
2026-05-04 16:39 47.43461 8.09282 12853 ft 393 kts 332°
2026-05-04 16:40 47.48631 8.08285 11071 ft 372 kts 14°
2026-05-04 16:40 47.52595 8.12304 10161 ft 325 kts 61°
2026-05-04 16:41 47.53252 8.18096 9656 ft 274 kts 112°
2026-05-04 16:41 47.51485 8.25365 8219 ft 259 kts 71°
2026-05-04 16:42 47.55914 8.28449 6916 ft 263 kts 338°
2026-05-04 16:43 47.58382 8.24684 6226 ft 260 kts 297°
2026-05-04 16:43 47.60155 8.19980 6025 ft 263 kts 290°
2026-05-04 16:43 47.60806 8.17432 5987 ft 264 kts 288°
2026-05-04 16:44 47.66674 8.13253 5954 ft 272 kts 31°
2026-05-04 16:45 47.68666 8.17639 5357 ft 267 kts 86°
2026-05-04 16:46 47.67949 8.24952 5704 ft 231 kts 132°
2026-05-04 16:46 47.65876 8.28696 5506 ft 241 kts 131°
2026-05-04 16:47 47.63597 8.32338 4744 ft 241 kts 135°